Tracking 19563 objects as of 20-Mar-2019
HD Live streaming from Space Station
objects crossing your sky now

COSMOS 794

Track COSMOS 794 now!
10-day predictions
COSMOS 794 is classified as:


NORAD ID: 8610
Int'l Code: 1976-008D
Perigee: 1,458.1 km
Apogee: 1,501.0 km
Inclination: 74.1 °
Period: 115.4 minutes
Semi major axis: 7850 km
RCS: 0.6746 m2 (medium)
Launch date: January 28, 1976
Source: Commonwealth of Independent States (former USSR) (CIS)
Launch site: PLESETSK MISSILE AND SPACE COMPLEX (PKMTR)
aabbcc
Your satellite tracking list
Your tracking list is empty




NASA's NSSDC Master Catalog

Two Line Element Set (TLE):
1  8610U 76008D   19078.21532120 -.00000013 +00000-0 +21916-4 0  9995
2  8610 074.0583 347.3518 0027355 269.6622 245.7702 12.48114857965413
Source of the keplerian elements: AFSPC